User: anonymous   Login
Location: Dob?e?
(49.9411°N, 15.1496°E)
Time: 12:50:48
(UTC+00:00)
Language:

N. Korean satellite - Orbit

View from above orbital plane
View from above orbital plane
View from above satellite
View from above satellite

Ground track
Ground track

The orbit data is extracted from the following two-line orbital elements,

1 39026U 12072A   21262.89589573  .00003340  00000-0  11271-3 0  9994
2 39026  97.2507 253.5241 0036631  49.7472 310.6963 15.30746823487473
Epoch (UTC): 19 September 2021 21:30:05
Eccentricity: 0.0036631
inclination: 97.2507°
perigee height: 448 km
apogee height: 498 km
right ascension of ascending node: 253.5241°
argument of perigee: 49.7472°
revolutions per day: 15.30746823
mean anomaly at epoch: 310.6963°
orbit number at epoch: 48747

The dashed part of the orbit path shows where the satellite is in the earth's shadow,  

DLR